Tracking 29487 objects as of 11-Sep-2024
HD Live streaming from Space Station
objects crossing your sky now

FENGYUN 1C DEB

Track FENGYUN 1C DEB now!
10-day predictions


NORAD ID: 30826
Int'l Code: 1999-025AVL
Perigee: 540.0 km
Apogee: 773.9 km
Inclination: 98.8 °
Period: 97.7 minutes
Semi major axis: 7027 km
RCS: 0.0008 m2 (small)
Launch date: May 10, 1999
Source: People's Republic of China (PRC)
Launch site: Taiyaun Space Center, China (TSC)

Note: This is SATELLITE DEBRIS
Your satellite tracking list
Your tracking list is empty




NASA's NSSDC Master Catalog

Two Line Element Set (TLE):
1 30826U 99025AVL 24253.22044160  .00012092  00000-0  14965-2 0  9990
2 30826  98.8451  35.6891 0166346   6.0304 114.6781 14.73533629934992
Source of the keplerian elements: AFSPC